Regional Weather Roundup
Issued by NWS

Home | Current Version | Previous Version | Graphics & Text | Print | Product List | Glossary On
Versions: 1 2 3 4 5 6 7 8 9 10 11 12 13 14 15 16 17 18 19 20 21 22 23 24 25 26 27 28 29 30 31 32 33 34 35 36 37 38 39 40 41 42 43 44 45 46 47 48 49 50
000
ASUS43 KMKX 011921
RWRWI

WISCONSIN REGIONAL WEATHER ROUNDUP
NATIONAL WEATHER SERVICE MILWAUKEE/SULLIVAN WI
200 PM CDT SAT AUG 01 2015

NOTE: "FAIR" INDICATES FEW OR NO CLOUDS BELOW 12,000 FEET WITH NO
SIGNIFICANT WEATHER AND/OR OBSTRUCTIONS TO VISIBILITY.

WIZ001-002-006>008-014>016-023>028-012000-
NORTHWEST WISCONSIN

CITY           SKY/WX    TMP DP  RH WIND       PRES   REMARKS
SUPERIOR ARPT  MOSUNNY   81  55  41 W14G21    29.87S HX  80
ASHLAND        SUNNY     81  51  35 W10G20    29.87F HX  80
HAYWARD        MOSUNNY   80  50  34 W8        29.91F HX  80
SIREN          SUNNY     80  50  34 SW10      29.92F
CUMBERLAND     SUNNY     77  50  38 W10       29.94F
RICE LAKE      SUNNY     78  52  40 W8        29.94F
CHETEK         SUNNY     79  54  41 W3        29.93F HX  80
LADYSMITH      MOSUNNY   78  51  39 W10       29.94F
EAU CLAIRE     SUNNY     81  53  37 W9        29.93F HX  80
MENOMONIE      SUNNY     82  52  34 SW10      29.93F HX  81
NEW RICHMOND   SUNNY     80  52  37 W6        29.94F HX  80
OSCEOLA        SUNNY     81  52  37 W6        29.95F HX  80
$$

WIZ003>005-009-010-017-018-012000-
NORTH CENTRAL WISCONSIN

CITY           SKY/WX    TMP DP  RH WIND       PRES   REMARKS
MANITOWISH WTR PTSUNNY   75  52  44 NW10G17   29.91F
ARBOR VITAE    MOSUNNY   73  50  43 W10G17    29.92S
WOODRUFF       MOSUNNY   73  50  43 W10G17    29.92S
RHINELANDER    MOSUNNY   78  51  38 NW9       29.93F
EAGLE RIVER    MOSUNNY   75  45  34 NW14      29.91F
LAND O LAKES   MOSUNNY   75  45  34 W10G17    29.92S
PHILLIPS       MOSUNNY   76  51  41 W7        29.91F
TOMAHAWK       PTSUNNY   76  51  41 W12G17    29.93F
MEDFORD        MOSUNNY   77  52  42 W9G16     29.94F
MERRILL        NOT AVBL
$$

WIZ029-030-035-036-043>047-012000-
CENTRAL WISCONSIN

CITY           SKY/WX    TMP DP  RH WIND       PRES   REMARKS
WAUSAU         MOSUNNY   81  47  30 NW12G18   29.91F HX  80
MOSINEE        MOSUNNY   79  48  34 W14G24    29.94F
MARSHFIELD     MOSUNNY   80  49  33 NW9G20    29.95F
STEVENS POINT  MOSUNNY   78  49  35 W12G21    29.94F
WAUPACA        MOSUNNY   84  45  25 W15       29.92F HX  82
WAUTOMA        MOSUNNY   85  50  29 W10       29.93F HX  83
WISC RAPIDS    MOSUNNY   82  49  31 W8G17     29.95F HX  81
CAMP DOUGLAS   MOSUNNY   82  59  44 W6        29.93F HX  82
$$

WIZ011>013-019>022-031-037>040-048>050-012000-
NORTHEAST WISCONSIN

CITY           SKY/WX    TMP DP  RH WIND       PRES   REMARKS
ANTIGO         PTSUNNY   76  50  40 W13G22    29.93F
SHAWANO        MOSUNNY   81  48  32 W9G20     29.90F HX  80
OCONTO         PTSUNNY   80  51  36 NW7       29.87F HX  80
STURGEON BAY   PTSUNNY   79  52  38 W12G18    29.90F
GREEN BAY      MOSUNNY   81  53  37 NW13G21   29.90F HX  80
MANITOWOC      SUNNY     81  48  31 MISG      29.90F HX  80
APPLETON       MOSUNNY   81  45  28 NW17G26   29.92F
CLINTONVILLE   MOSUNNY   81  43  26 W16       29.90F
OSHKOSH        MOSUNNY   81  51  35 NW8G22    29.91F HX  80
$$

WIZ032>034-041-042-053>061-012000-
SOUTHWEST WISCONSIN

CITY           SKY/WX    TMP DP  RH WIND       PRES   REMARKS
LA CROSSE      MOSUNNY   83  63  50 N6        29.93F HX  84
SPARTA         SUNNY     82  54  37 W7        29.95S HX  81
VIROQUA        MOSUNNY   79  63  58 W5        29.96F HX  80
BOSCOBEL       MOSUNNY   89  65  44 NW8       29.93F HX  91
PRAIRIE DU CHI MOSUNNY   86  57  36 W10       29.92F HX  85
PLATTEVILLE    MOSUNNY   85  65  52 W14       29.95F HX  86
$$

WIZ056-057-062-063-064-067-068-012000-
SOUTH CENTRAL WISCONSIN

CITY           SKY/WX    TMP DP  RH WIND       PRES   REMARKS
REEDSBURG      SUNNY     83  60  46 SW10      29.93F HX  83
BARABOO/DELLS  MOSUNNY   83  53  35 W10       29.94F HX  81
LONE ROCK      SUNNY     85  63  47 W10       29.93F HX  86
MINERAL POINT  SUNNY     84  63  48 W8        29.95F HX  85
MADISON        MOSUNNY   82  61  48 W5        29.93F HX  83
MIDDLETON      MOSUNNY   83  60  46 NW12      29.94F HX  83
WATERTOWN      CLOUDY    79  58  49 W8        29.95F HX  80
MONROE         MOSUNNY   82  61  47 W17G25    29.95F HX  83
JANESVILLE     MOSUNNY   88  57  35 W14G22    29.93F HX  86
$$

WIZ051-052-058>065-066-070>072-012000-
SOUTHEAST WISCONSIN

CITY           SKY/WX    TMP DP  RH WIND       PRES   REMARKS
MILWAUKEE      PTSUNNY   81  52  36 W10       29.94F HX  80
WAUKESHA       MOSUNNY   77  52  41 W12       29.97F
MILWAUKEE/TIMM PTSUNNY   81  50  34 W9        29.95S HX  80
RACINE         PTSUNNY   83  57  41 NW12      29.95F HX  82
BURLINGTON     MOSUNNY   82  56  41 W9G22     29.94F HX  81
KENOSHA        MOSUNNY   80  60  50 W10       29.94F HX  81
FOND DU LAC    SUNNY     83  53  35 W13G23    29.92F HX  82
SHEBOYGAN      SUNNY     81  52  36 W14G23    29.91F HX  80
WEST BEND      MOSUNNY   79  48  34 W12G18    29.93F
JUNEAU         MOSUNNY   76  56  48 W9        29.96S
$$

LSZ147-162-012000-
LAKE SUPERIOR

STATION/POSITION TIME  TEMP    WIND        PRES    WAVE
                       AIR SEA DIR/SP/G            HT/PER
                 (UTC) (F)     (DEG/KT/KT) (MB)    (FT/S)
W MID LAKE BUOY  1850   59 54  220/ 14/ 16 1010.2F   2/ 4
DEVILS ISLAND    1900   70     230/ 14/ 16 1010.6F
PORT WING        1800   75     260/  9/ 11 1011.9F
SAXON HARBOR     1840   78                 1011.5F
$$

LMZ867-665-643>646-012000-
LAKE MICHIGAN

STATION/POSITION TIME  TEMP    WIND        PRES    WAVE
                       AIR SEA DIR/SP/G            HT/PER
                 (UTC) (F)     (DEG/KT/KT) (MB)    (FT/S)
CHAMBERS ISLAND  1800   78     300/  2/  7 1011.5F
S GREEN BAY BUOY 1900   72 71  260/  6/  8 1013.3F
N MID LAKE BUOY  1850   69 68  210/ 12/ 12 1010.9F   1
NORTHPORT PIER   1800   76     280/  5/  9 1011.5F
SISTER BAY       1814   81     280/  8/  9   N/A
ALGOMA LAKESHORE 1812          310/ 11/ 17   N/A
KEWAUNEE LAKESHO 1800   77     310/  8/ 13 1011.9F
SHEBOYGAN LAKESH 1900   79     290/ 17/ 21 1012.8F
PORT WASHINGTON  1840   83     270/  7/ 12 1013.5F
ATWATER BUOY     1900   74 67  250/  4/  6 1014.9F
MILWAUKEE LAKESH 1900   78     290/ 10/ 13   N/A
KENOSHA   LAKESH 1900   81     280/  7/ 13 1013.2F
$$

TC  - TEMPERATURE IN CELSIUS
VSB - VISIBILITY IN STATUTE MILES
WCI - WIND CHILL INDEX
HX  - HEAT INDEX



USA.gov is the U.S. government's official web portal to all federal, state and local government web resources and services.